Location: Recife
(8.0585°S, 34.8848°W)
Time: 09:24:35
(UTC-03:00)

Injun/Solrad 3 - Pass Details

Date: 20 April 2026
Orbit: 868 x 988 km, 66.8° (Epoch: 12 May)

Event Time Altitude Azimuth Distance (km) Brightness Sun altitude
Rises 18:16:02 0° 191° (S) 3,460 10.9 -15.7°
Reaches altitude 10° 18:18:36 10° 185° (S) 2,516 10.1 -16.3°
Maximum altitude 18:24:12 50° 111° (ESE) 1,100 7.9 -17.6°
Drops below altitude 10° 18:29:48 10° 36° (NE) 2,522 9.9 -19.0°
Sets 18:32:21 0° 31° (NNE) 3,469 10.7 -19.6°
